FW4018 Weather Reports


time (UTC)temp
C
wind
direction
speed
KPH
gust
KPH
rain 1hr
cm
rain 24hr
cm
rain mn
cm
humidity
%
barometer
mb
20260508141536 26 65 3.2 8.0 0.00 0.00 0.00 38 1017.2
20260508140536 26 66 3.2 6.4 0.00 0.00 0.00 37 1017.2
20260508135516 27 60 3.2 9.7 0.00 0.00 0.00 36 1017.2
20260508134536 27 53 3.2 16.1 0.00 0.00 0.00 37 1017.4
20260508133516 27 70 4.8 11.3 0.00 0.00 0.00 37 1017.5
20260508132516 27 48 3.2 9.7 0.00 0.00 0.00 38 1017.5
20260508131516 27 39 3.2 8.0 0.00 0.00 0.00 37 1017.6
20260508130516 27 344 1.6 8.0 0.00 0.00 0.00 37 1017.7
20260508125536 27 38 3.2 8.0 0.00 0.00 0.00 37 1017.8
20260508124516 27 9 3.2 9.7 0.00 0.00 0.00 37 1017.9
20260508123516 27 332 3.2 11.3 0.00 0.00 0.00 37 1018.0
20260508122516 27 318 3.2 11.3 0.00 0.00 0.00 36 1018.0
20260508121516 27 332 3.2 9.7 0.00 0.00 0.00 35 1018.1
20260508120516 27 333 3.2 9.7 0.00 0.00 0.00 36 1018.1
20260508115516 27 322 3.2 9.7 0.00 0.00 0.00 34 1018.3
20260508114516 27 60 3.2 8.0 0.00 0.00 0.00 35 1018.4
20260508113516 27 39 3.2 11.3 0.00 0.00 0.00 36 1018.5
20260508112516 27 330 3.2 8.0 0.00 0.00 0.00 37 1018.6
20260508111516 26 64 3.2 8.0 0.00 0.00 0.00 39 1018.6
20260508110517 26 341 1.6 4.8 0.00 0.00 0.00 41 1018.7
20260508105518 25 70 4.8 9.7 0.00 0.00 0.00 41 1018.7
20260508104536 25 20 3.2 8.0 0.00 0.00 0.00 41 1018.7
20260508103521 25 337 3.2 9.7 0.00 0.00 0.00 43 1018.9
20260508102516 24 344 3.2 11.3 0.00 0.00 0.00 44 1018.9
20260508101517 24 31 1.6 8.0 0.00 0.00 0.00 46 1019.0
20260508100516 23 59 3.2 6.4 0.00 0.00 0.00 47 1019.0
20260508095557 23 329 3.2 9.7 0.00 0.00 0.00 45 1019.2
20260508094516 23 7 3.2 9.7 0.00 0.00 0.00 47 1019.3
20260508093516 22 2 3.2 6.4 0.00 0.00 0.00 49 1019.3
20260508092516 22 15 3.2 9.7 0.00 0.00 0.00 50 1019.4
20260508091516 22 338 3.2 11.3 0.00 0.00 0.00 51 1019.5
20260508090516 22 322 4.8 11.3 0.00 0.00 0.00 52 1019.5
20260508085516 21 350 3.2 8.0 0.00 0.00 0.00 57 1019.6
20260508084516 21 345 3.2 6.4 0.00 0.00 0.00 59 1019.6
20260508083556 21 34 3.2 8.0 0.00 0.00 0.00 58 1019.7
20260508082516 20 19 1.6 8.0 0.00 0.00 0.00 64 1019.7
20260508081516 20 28 1.6 6.4 0.00 0.00 0.00 67 1019.8
20260508080516 19 338 3.2 8.0 0.00 0.00 0.00 72 1019.7
20260508075536 19 358 1.6 4.8 0.00 0.00 0.00 75 1019.8
20260508074516 18 356 1.6 6.4 0.00 0.00 0.00 76 1019.8
20260508073516 18 320 3.2 6.4 0.00 0.00 0.00 76 1019.8
20260508072516 18 307 1.6 4.8 0.00 0.00 0.00 75 1019.7
20260508071516 17 332 1.6 6.4 0.00 0.00 0.00 77 1019.7
20260508070517 17 314 1.6 6.4 0.00 0.00 0.00 79 1019.7
20260508065537 17 315 1.6 4.8 0.00 0.00 0.00 81 1019.8
20260508064516 17 348 1.6 6.4 0.00 0.00 0.00 82 1019.7
20260508063536 16 311 1.6 8.0 0.00 0.00 0.00 91 1019.6
20260508062516 16 189 0.0 3.2 0.00 0.00 0.00 93 1019.6
20260508061516 16 314 1.6 3.2 0.00 0.00 0.00 93 1019.7
20260508060516 15 183 0.0 1.6 0.00 0.00 0.00 97 1019.7
20260508055516 15 234 0.0 3.2 0.00 0.00 0.00 99 1019.9
20260508054516 15 57 0.0 1.6 0.00 0.00 0.00 100 1020.0
20260508053516 14 205 0.0 3.2 0.00 0.00 0.00 100 1020.1
20260508052537 13 180 1.6 4.8 0.00 0.00 0.00 100 1020.0
20260508051516 13 260 1.6 4.8 0.00 0.00 0.00 100 1019.9
20260508050516 13 311 1.6 4.8 0.00 0.00 0.00 100 1019.8
20260508045516 12 304 3.2 4.8 0.00 0.00 0.00 100 1019.8
20260508044516 12 313 1.6 6.4 0.00 0.00 0.00 100 1019.9
20260508043516 12 267 1.6 4.8 0.00 0.00 0.00 100 1019.9
20260508042516 11 309 1.6 3.2 0.00 0.00 0.00 100 1019.8
20260508041516 11 316 1.6 3.2 0.00 0.00 0.00 100 1019.8
20260508040516 10 314 0.0 1.6 0.00 0.00 0.00 100 1019.9
20260508035557 10 330 0.0 1.6 0.00 0.00 0.00 100 1020.0
20260508034516 10 264 0.0 0.0 0.00 0.00 0.00 100 1020.1
20260508033536 10 0.0 0.0 0.00 0.00 0.00 100 1020.2
20260508032517 10 258 0.0 0.0 0.00 0.00 0.00 100 1020.0
20260508031516 9 0.0 0.0 0.00 0.00 0.00 100 1020.1
20260508030517 9 0.0 0.0 0.00 0.00 0.00 100 1020.2
20260508025536 9 0.0 0.0 0.00 0.00 0.00 100 1020.0
20260508024516 9 0.0 0.0 0.00 0.00 0.00 100 1019.9
20260508023516 9 0.0 0.0 0.00 0.00 0.00 100 1019.8
20260508022556 9 0.0 0.0 0.00 0.00 0.00 100 1019.8
20260508021517 9 0.0 0.0 0.00 0.00 0.00 100 1019.7
20260508015557 9 0.0 0.0 0.00 0.00 0.00 100 1019.5
20260508014516 10 0.0 0.0 0.00 0.00 0.00 100 1019.4
20260508013517 10 0.0 0.0 0.00 0.00 0.00 100 1019.4
20260508012537 10 0.0 0.0 0.00 0.00 0.00 100 1019.4
20260508011556 10 0.0 0.0 0.00 0.00 0.00 100 1019.4
20260508010516 10 0.0 0.0 0.00 0.00 0.00 100 1019.4
20260508005517 10 0.0 0.0 0.00 0.00 0.00 100 1019.4
20260508004517 10 0.0 0.0 0.00 0.00 0.00 100 1019.5
20260508003517 10 0.0 0.0 0.00 0.00 0.00 100 1019.5
20260508002516 10 81 0.0 0.0 0.00 0.00 0.00 100 1019.3
20260508001517 11 0.0 0.0 0.00 0.00 0.00 100 1019.2
20260508000537 11 0.0 0.0 0.00 0.00 0.00 100 1019.2
20260507235536 11 0.0 0.0 0.00 0.00 0.00 100 1019.2
20260507234516 11 267 0.0 1.6 0.00 0.00 0.00 100 1019.2
20260507233517 11 230 0.0 1.6 0.00 0.00 0.00 100 1019.1
20260507232516 11 257 0.0 0.0 0.00 0.00 0.00 100 1019.0
20260507231517 11 276 0.0 1.6 0.00 0.00 0.00 100 1018.9
20260507230516 11 310 0.0 1.6 0.00 0.00 0.00 100 1018.7
20260507225516 11 296 0.0 1.6 0.00 0.00 0.00 100 1018.7
20260507224536 11 229 0.0 0.0 0.00 0.00 0.00 100 1018.9
20260507223536 11 286 0.0 1.6 0.00 0.00 0.00 100 1019.0
20260507222516 11 0.0 0.0 0.00 0.00 0.00 100 1019.0
20260507221516 11 46 0.0 0.0 0.00 0.00 0.00 100 1019.0
20260507220517 11 0.0 0.0 0.00 0.00 0.00 100 1019.1
20260507215516 12 295 0.0 0.0 0.00 0.00 0.00 100 1019.3
20260507214537 12 0.0 0.0 0.00 0.00 0.00 100 1019.3
20260507213517 12 7 0.0 0.0 0.00 0.00 0.00 100 1019.1
20260507212517 12 51 0.0 0.0 0.00 0.00 0.00 100 1019.1
20260507211516 12 45 0.0 1.6 0.00 0.00 0.00 100 1019.1
20260507210537 12 337 0.0 1.6 0.00 0.00 0.00 100 1019.2
20260507205516 12 73 0.0 0.0 0.00 0.00 0.00 100 1019.3
20260507204516 13 68 0.0 1.6 0.00 0.00 0.00 100 1019.6
20260507203537 13 63 0.0 3.2 0.00 0.00 0.00 100 1019.6
20260507202516 13 46 1.6 6.4 0.00 0.00 0.00 100 1019.6
20260507201517 13 48 0.0 0.0 0.00 0.00 0.00 99 1019.5
20260507200516 13 51 0.0 1.6 0.00 0.00 0.00 100 1019.4
20260507195517 13 44 0.0 1.6 0.00 0.00 0.00 99 1019.3
20260507194517 14 50 0.0 3.2 0.00 0.00 0.00 97 1019.1
20260507193535 14 53 1.6 3.2 0.00 0.00 0.00 97 1019.2
20260507192517 14 55 1.6 4.8 0.00 0.00 0.00 96 1019.2
20260507191517 14 58 1.6 4.8 0.00 0.00 0.00 95 1019.2
20260507190516 15 20 0.0 1.6 0.00 0.00 0.00 93 1019.1
20260507185517 15 54 1.6 4.8 0.00 0.00 0.00 92 1019.0
20260507184536 15 55 1.6 4.8 0.00 0.00 0.00 91 1018.9
20260507183515 15 53 1.6 4.8 0.00 0.00 0.00 89 1019.0
20260507181516 15 63 3.2 8.0 0.00 0.00 0.00 88 1018.9
20260507175516 16 62 1.6 6.4 0.00 0.00 0.00 84 1018.8
20260507174516 16 77 1.6 4.8 0.00 0.00 0.00 82 1018.7
20260507173516 16 79 1.6 4.8 0.00 0.00 0.00 81 1018.7
20260507172517 16 84 1.6 4.8 0.00 0.00 0.00 80 1018.5
20260507171517 17 64 1.6 9.7 0.00 0.00 0.00 79 1018.4
20260507170516 17 61 1.6 6.4 0.00 0.00 0.00 78 1018.2
20260507165535 17 65 1.6 4.8 0.00 0.00 0.00 75 1018.1
20260507164536 18 67 0.0 3.2 0.00 0.00 0.00 73 1018.0
20260507163515 18 63 3.2 9.7 0.00 0.00 0.00 71 1017.8
20260507162516 18 58 1.6 6.4 0.00 0.00 0.00 69 1017.9
20260507161516 19 61 1.6 6.4 0.00 0.00 0.00 68 1017.8
20260507160516 19 70 1.6 3.2 0.00 0.03 0.00 66 1017.7
20260507155516 20 64 1.6 8.0 0.00 0.03 0.00 64 1017.6
20260507154516 20 59 3.2 9.7 0.00 0.03 0.00 63 1017.5
20260507153516 20 54 3.2 8.0 0.00 0.03 0.00 61 1017.5
20260507152516 20 51 3.2 6.4 0.00 0.03 0.00 59 1017.5
20260507151515 21 52 3.2 8.0 0.00 0.03 0.00 56 1017.5
20260507150516 21 56 3.2 6.4 0.00 0.03 0.00 54 1017.6
20260507145516 22 57 1.6 6.4 0.00 0.03 0.00 51 1017.6
20260507144516 23 57 3.2 6.4 0.00 0.03 0.00 49 1017.6
20260507143516 23 42 1.6 6.4 0.00 0.03 0.00 48 1017.7
20260507142515 24 58 3.2 8.0 0.00 0.03 0.00 47 1017.7